STARLINK-2494 (48487 NORAD) Tracking and Keplerian Element Data

This shows tracking and keplerian element data for the satellite.

Feedback or suggestion? Click here.




ElementValue
Catalog48487
NameSTARLINK-2494
Epoch Orbit1448
Epoch Day215.12978134
Epoch Year2021
RAAN181.4431
Inclination53.0554
Eccentricity0.0001544
Argument of Perigee61.1757
Mean Anonmoly298.9387
Mean Motion15.0639564
Decay Rate4.45E-06
L11 48487U 21040BM 21215.12978134 .00000445 00000-0 48753-4 0 9998
L22 48487 53.0554 181.4431 0001544 61.1757 298.9387 15.06395640 14480

Live tracking and technical data element details for STARLINK-2494 (NORAD 48487). STARLINK-2494 can be tracked NOW for your location showing map with azimuth and elevation plus other details from your city location.

Track the satellite on the map from your city or location and see movement details for azimuth, elevation, latitude, longitude, range, height, and movement on the map or in text.







IsCatalogInMostPopularTable: catalog: 48487, numindb: 27
Update: records affected: 1



GetName: 48487 STARLINK-2494

Hit Count: updated at: Tue, 03 Aug 2021 22:52:10 GMT